Location: Oulou
(10.7667°N, 12.5167°W)
Time: 00:35:55
(UTC+00:00)

Hubble Space Telescope - Visible Passes

Search period start: 13 November 2019 00:00
Search period end: 23 November 2019 00:00
Orbit: 536 x 540 km, 28.5° (Epoch: 12 November)

Date Brightness Start Highest point End Pass type
(mag) Time Alt. Az. Time Alt. Az. Time Alt. Az.
13 Nov 0.8 05:25:16 51° W 05:26:01 63° SSW 05:30:06 10° SE visible
13 Nov 1.0 19:00:49 10° SW 19:04:51 56° SSE 19:07:59 16° ENE visible
13 Nov 3.7 20:42:33 10° W 20:43:20 14° WNW 20:43:20 14° WNW visible
14 Nov 1.3 05:15:30 43° SSW 05:15:30 43° SSW 05:19:22 10° SE visible
14 Nov 0.8 18:50:09 10° WSW 18:54:16 80° SSE 18:58:11 11° ENE visible
14 Nov 3.4 20:32:24 10° WNW 20:33:31 15° WNW 20:33:31 15° WNW visible
15 Nov 2.2 05:05:43 28° S 05:05:43 28° S 05:08:30 10° SSE visible
15 Nov 0.9 18:39:34 10° WSW 18:43:41 73° NNW 18:47:48 10° ENE visible
15 Nov 3.3 20:22:22 10° WNW 20:23:41 15° NW 20:23:41 15° NW visible
16 Nov 3.0 04:55:55 17° S 04:55:55 17° S 04:57:30 10° SSE visible
16 Nov 3.3 20:12:27 10° NW 20:13:49 13° NNW 20:13:49 13° NNW visible
17 Nov 3.6 04:46:05 11° S 04:46:05 11° S 04:46:15 10° S visible
17 Nov 3.3 20:02:47 10° NW 20:03:55 11° NNW 20:03:55 11° NNW visible
